Location: Newark
(7.0858°N, 171.3717°E)
Time: 00:32:07
(UTC+00:00)

Vanguard 3 - Pass Details

Date: 01 December 2020
Orbit: 508 x 3262 km, 33.3° (Epoch: 19 January)

Event Time Altitude Azimuth Distance (km) Brightness Sun altitude
Exits shadow 15:00:08 47° 98° (E) 2,286 9.4 -49.5°
Drops below altitude 10° 15:10:01 10° 117° (ESE) 5,108 11.7 -47.3°
Sets 15:15:00 0° 120° (ESE) 6,506 12.5 -46.2°
